Weather History for Sexton Summit, OR

Change the Weather History Date:

Monday, October 31, 2011

  Actual Average Record
Temperature  
Mean Temperature 40 °F -  
Max Temperature 45 °F 48 °F 59 °F (2008)
Min Temperature 33 °F 37 °F 27 °F (2003)
Degree Days  
Heating Degree Days 25    
Moisture  
Dew Point 38 °F    
Average Humidity 95    
Maximum Humidity 100    
Minimum Humidity 79    
Precipitation  
Precipitation 0.01 in - - ()
Sea Level Pressure  
Sea Level Pressure 30.28 in    
Wind  
Wind Speed 10 mph (North)    
Max Wind Speed 18 mph    
Max Gust Speed 32 mph    
Visibility 5 miles    
Events Fog , Rain    
Averages and records for this station are not official NWS values.
T = Trace of Precipitation, MM = Missing Value Source: NWS Daily Summary

Daily Weather History Graph

Daily Weather History Graph

Search for Another Location

Airport:

Trip Planner

Search our weather history database for the weather conditions in past years. The results will help you decide how hot, cold, wet, or windy it might be!

Date:

Astronomy

Oct. 31, 2011 Rise Set
Actual Time 7:45 AM PDT 6:07 PM PDT
Civil Twilight 7:16 AM PDT 6:36 PM PDT
Nautical Twilight 6:43 AM PDT 7:10 PM PDT
Astronomical Twilight 6:10 AM PDT 7:42 PM PDT
Moon 12:59 PM PDT (10/31) 10:47 PM PDT (10/31)
Length of Visible Light 11h 20m
Length of Day
10h 22m
Waxing Crescent, 31% of the Moon is Illuminated
Oct 31
Waxing Crescent
Nov 2
First Quarter
Nov 10
Full
Nov 18
Last Quarter
Nov 24
New

Hourly Weather History & Observations

Time (PDT) Temp. Windchill Dew Point Humidity Pressure Visibility Wind Dir Wind Speed Gust Speed Precip Events Conditions
12:49 AM 46.4 °F 41.5 °F 46.4 °F 100% 30.24 in 1.0 mi NNW 10.4 mph 19.6 mph N/A   Mist
12:56 AM 45.0 °F 38.9 °F 45.0 °F 100% 30.20 in 0.8 mi NNW 12.7 mph 19.6 mph 0.00 in Rain Light Rain
1:09 AM 44.6 °F 39.2 °F 44.6 °F 100% 30.25 in 1.0 mi NNW 10.4 mph 20.7 mph 0.00 in   Mist
1:56 AM 43.0 °F 36.4 °F 43.0 °F 100% 30.20 in 1.0 mi NNW 12.7 mph - 0.00 in   Mist
2:09 AM 42.8 °F 36.2 °F 42.8 °F 100% 30.24 in 0.8 mi NNW 12.7 mph 25.3 mph N/A   Mist
2:17 AM 42.8 °F 35.4 °F 42.8 °F 100% 30.24 in 1.0 mi NNW 15.0 mph 26.5 mph N/A   Mist
2:24 AM 42.8 °F 36.2 °F 42.8 °F 100% 30.25 in 0.8 mi NNW 12.7 mph 26.5 mph N/A   Mist
2:56 AM 42.1 °F 35.2 °F 42.1 °F 100% 30.20 in 0.8 mi North 12.7 mph 23.0 mph N/A   Mist
3:56 AM 42.1 °F 35.2 °F 42.1 °F 100% 30.20 in 0.5 mi North 12.7 mph 24.2 mph N/A Fog Fog
4:41 AM 41.0 °F 36.4 °F 41.0 °F 100% 30.24 in 0.8 mi Variable 6.9 mph 19.6 mph N/A   Mist
4:52 AM 41.0 °F 34.7 °F 41.0 °F 100% 30.24 in 1.0 mi North 10.4 mph 19.6 mph N/A   Mist
4:56 AM 41.0 °F 33.9 °F 41.0 °F 100% 30.21 in 0.8 mi North 12.7 mph 20.7 mph N/A   Mist
6:56 AM 41.0 °F 38.0 °F 41.0 °F 100% 30.25 in 0.5 mi Variable 4.6 mph - N/A Fog Fog
7:11 AM 41.0 °F 38.0 °F 41.0 °F 100% 30.27 in 0.2 mi Variable 4.6 mph - N/A Fog Fog
7:16 AM 41.0 °F 39.0 °F 41.0 °F 100% 30.27 in 0.5 mi Variable 3.5 mph - N/A Fog Fog
7:29 AM 41.0 °F - 41.0 °F 100% 30.27 in 0.2 mi Calm Calm - N/A Fog Fog
7:56 AM 41.0 °F 37.1 °F 41.0 °F 100% 30.25 in 0.5 mi Variable 5.8 mph - N/A Fog Fog
8:08 AM 41.0 °F 38.0 °F 41.0 °F 100% 30.28 in 0.2 mi Variable 4.6 mph - 0.01 in Fog Fog
8:56 AM 39.0 °F 32.3 °F 39.0 °F 100% 30.28 in 0.2 mi North 10.4 mph 20.7 mph 0.01 in Fog Fog
9:56 AM 39.0 °F 36.8 °F 39.0 °F 100% 30.31 in 0.2 mi Variable 3.5 mph - N/A Fog Fog
10:04 AM 39.2 °F 35.9 °F 39.2 °F 100% 30.31 in 0.2 mi North 4.6 mph - N/A Fog Fog
10:56 AM 37.9 °F 33.5 °F 37.9 °F 100% 30.32 in 0.2 mi North 5.8 mph - N/A Fog Fog
11:23 AM 37.4 °F 32.1 °F 37.4 °F 100% 30.32 in 0.8 mi North 6.9 mph - N/A   Overcast
11:30 AM 37.4 °F 32.8 °F 37.4 °F 100% 30.32 in 1.5 mi Variable 5.8 mph - N/A   Overcast
11:35 AM 37.4 °F 32.1 °F 37.4 °F 100% 30.32 in 1.0 mi Variable 6.9 mph - N/A   Overcast
11:42 AM 37.4 °F 33.8 °F 37.4 °F 100% 30.31 in 2.5 mi Variable 4.6 mph - N/A   Overcast
11:56 AM 37.0 °F 30.4 °F 36.0 °F 96% 30.32 in 10.0 mi NNE 9.2 mph - N/A   Mostly Cloudy
12:56 PM 37.9 °F 32.7 °F 36.0 °F 93% 30.31 in 10.0 mi Variable 6.9 mph 18.4 mph N/A   Mostly Cloudy
1:07 PM 39.2 °F 32.5 °F 35.6 °F 87% 30.29 in 10.0 mi NNE 10.4 mph 17.3 mph N/A   Partly Cloudy
1:56 PM 39.0 °F 32.3 °F 35.1 °F 86% 30.30 in 10.0 mi North 10.4 mph 19.6 mph N/A   Partly Cloudy
2:56 PM 42.1 °F 37.1 °F 36.0 °F 79% 30.29 in 10.0 mi North 8.1 mph - N/A   Mostly Cloudy
3:51 PM 39.2 °F 33.6 °F 35.6 °F 87% 30.27 in 10.0 mi North 8.1 mph 17.3 mph N/A   Scattered Clouds
3:56 PM 41.0 °F 37.1 °F 35.1 °F 79% 30.29 in 10.0 mi Variable 5.8 mph - N/A   Scattered Clouds
4:26 PM 39.2 °F 34.2 °F 33.8 °F 81% 30.28 in 10.0 mi Variable 6.9 mph - N/A   Mostly Cloudy
4:56 PM 39.9 °F 36.7 °F 34.0 °F 79% 30.30 in 10.0 mi Variable 4.6 mph - N/A   Mostly Cloudy
5:56 PM 37.0 °F 27.7 °F 33.1 °F 86% 30.31 in 10.0 mi North 16.1 mph 26.5 mph N/A   Mostly Cloudy
6:07 PM 37.4 °F 30.8 °F 33.8 °F 87% 30.27 in 10.0 mi North 9.2 mph 32.2 mph N/A   Partly Cloudy
6:56 PM 36.0 °F 26.7 °F 30.9 °F 82% 30.32 in 10.0 mi North 15.0 mph 26.5 mph N/A   Clear
7:56 PM 35.1 °F 27.4 °F 32.0 °F 89% 30.34 in 10.0 mi North 10.4 mph 24.2 mph N/A   Partly Cloudy
8:14 PM 35.6 °F 26.6 °F 32.0 °F 87% 30.30 in 10.0 mi NNE 13.8 mph 21.9 mph N/A   Mostly Cloudy
8:24 PM 35.6 °F 28.0 °F 33.8 °F 93% 30.29 in 10.0 mi North 10.4 mph 23.0 mph N/A   Overcast
8:56 PM 35.1 °F 27.9 °F 33.1 °F 92% 30.34 in 10.0 mi North 9.2 mph 23.0 mph N/A   Mostly Cloudy
9:18 PM 35.6 °F 29.2 °F 33.8 °F 93% 30.30 in 10.0 mi North 8.1 mph 21.9 mph N/A   Mostly Cloudy
9:56 PM 35.1 °F 24.5 °F 33.1 °F 92% 30.35 in 10.0 mi North 18.4 mph 28.8 mph N/A   Mostly Cloudy
10:56 PM 34.0 °F 27.2 °F 33.1 °F 96% 30.36 in 10.0 mi North 8.1 mph 18.4 mph 0.00 in   Mostly Cloudy
11:56 PM 33.1 °F 24.4 °F 33.1 °F 100% 30.38 in 10.0 mi North 11.5 mph 28.8 mph N/A   Mostly Cloudy